[[{"header":{"parameterUnit":"m.s-1","parameterCategory":1,"la1":30.2992,"la2":30.254,"lo1":-89.0895,"lo2":-89.0443,"dy":0.0025,"dx":0.0025,"nx":19,"ny":19,"refTime":"2026-04-02T03:00:00:Z","depth":0,"parameterNumber":2,"parameterNumberName":"U-component_of_WINDS"},"data":[0,0,0,-5.1717,-5.1721,-5.1901,-5.1901,-5.2136,-5.2138,0,0,0,0,0,0,0,0,0,0,0,-5.1667,-5.1669,-5.1717,-5.1721,-5.1901,-5.1901,-5.2136,-5.2138,0,0,0,0,0,0,0,0,0,0,0,-5.1666,-5.1668,-5.167,-5.1722,-5.1901,-5.1901,-5.2135,-5.1998,0,0,0,0,0,0,0,0,0,0,-5.1822,-5.178,-5.1668,-5.1671,-5.1723,-5.19,-5.1902,-5.1991,-5.2006,-5.2057,0,-5.2104,0,-5.2125,-5.2154,-5.2155,0,0,0,-5.1718,-5.1767,-5.1813,-5.1671,-5.1725,-5.19,-5.1819,-5.2,-5.2017,-5.2078,-5.2107,-5.2115,-5.2129,-5.2156,-5.2157,-5.2461,-5.2463,0,0,-5.1708,-5.1701,-5.1801,-5.1824,-5.1797,-5.1813,-5.1825,-5.201,-5.2041,-5.2108,-5.2121,-5.2133,-5.2158,-5.2159,-5.246,-5.2462,0,0,0,-5.1682,-5.1694,-5.1735,-5.1815,-5.1847,-5.1818,-5.1832,-5.2033,-5.2047,-5.2123,-5.2136,-5.2159,-5.2162,-5.2458,-5.2461,-5.2529,0,0,0,-5.1676,-5.1678,-5.1731,-5.1728,-5.1843,-5.1942,-5.185,-5.2034,-5.2055,-5.2134,-5.2159,-5.2164,-5.2457,-5.246,-5.2523,-5.2561,0,0,0,-5.1654,-5.1676,-5.1703,-5.1727,-5.1804,-5.1939,-5.1964,-5.2039,-5.2063,-5.2156,-5.2165,-5.2455,-5.2459,-5.2518,-5.2552,-5.2637,0,0,0,-5.1628,-5.176,-5.1704,-5.1857,-5.1803,-5.1981,-5.1963,-5.2096,-5.2184,-5.216,-5.2457,-5.246,-5.2517,-5.2548,-5.2632,-5.2705,-5.2735,0,0,-5.179,-5.178,-5.1871,-5.1825,-5.2012,-5.1954,-5.2151,-5.2238,-5.2254,-5.2391,-5.2399,-5.2525,-5.2552,-5.2636,-5.2915,-5.2939,0,0,0,-5.1919,-5.1984,-5.2035,-5.2119,-5.219,-5.2254,-5.2313,-5.2346,-5.2463,-5.2323,-5.258,-5.2597,-5.2646,-5.2681,-5.2702,-5.2744,-5.2477,-5.2477,-5.2477,-5.2134,-5.2149,-5.23,-5.2337,-5.242,-5.248,-5.2548,-5.2602,-5.2592,-5.2654,-5.2692,-5.286,-5.2901,-5.2916,-5.296,-5.2735,-5.2736,-5.2736,-5.2736,-5.237,-5.2463,-5.2451,-5.2592,-5.2607,-5.2726,-5.2792,-5.2781,-5.2894,-5.2831,-5.2875,-5.2802,-5.2942,-5.2981,-5.2741,-5.2741,-5.274,-5.2739,-5.2739,-5.2509,-5.2556,-5.2596,-5.2721,-5.2816,-5.285,-5.2959,-5.297,-5.2981,-5.3026,-5.3068,-5.3066,-5.3064,-5.3046,-5.3047,-5.3047,-5.3048,-5.3048,-5.3049,-5.2636,-5.2679,-5.277,-5.286,-5.2916,-5.2992,-5.3058,-5.3114,-5.3178,-5.3177,-5.3177,-5.316,-5.2955,-5.29,-5.3057,-5.3056,-5.3055,-5.3054,-5.3053,-5.2863,-5.2814,-5.2954,-5.3011,-5.3118,-5.3212,-5.3227,-5.334,-5.3388,-5.3442,-5.3419,-5.3266,-5.3254,-5.3238,-5.3193,-5.3416,-5.3416,-5.3416,-5.3416,-5.2977,-5.2975,-5.3121,-5.3211,-5.3301,-5.333,-5.3488,-5.3543,-5.359,-5.3621,-5.3592,-5.3535,-5.3518,-5.3517,-5.3495,-5.3452,-5.3737,-5.3737,-5.3737,-5.3116,-5.3124,-5.3255,-5.3302,-5.3389,-5.3462,-5.3611,-5.3715,-5.376,-5.375,-5.3645,-5.3632,-5.354,-5.351,-5.3491,-5.3457,-5.338,0,0]},{"header":{"parameterUnit":"m.s-1","parameterCategory":1,"la1":30.2992,"la2":30.254,"lo1":-89.0895,"lo2":-89.0443,"dy":0.0025,"dx":0.0025,"nx":19,"ny":19,"refTime":"2026-04-02T03:00:00:Z","depth":0,"parameterNumber":3,"parameterNumberName":"V-component_of_WINDS"},"data":[0,0,0,2.5345,2.5345,2.5363,2.5363,2.5387,2.5388,0,0,0,0,0,0,0,0,0,0,0,2.5342,2.5343,2.5345,2.5345,2.5363,2.5363,2.5387,2.5388,0,0,0,0,0,0,0,0,0,0,0,2.5342,2.5343,2.5343,2.5345,2.5363,2.5363,2.5387,2.5373,0,0,0,0,0,0,0,0,0,0,2.5356,2.5356,2.5343,2.5343,2.5346,2.5363,2.5363,2.5372,2.5374,2.5381,0,2.539,0,2.5389,2.539,2.539,0,0,0,2.5343,2.5355,2.5358,2.5343,2.5346,2.5363,2.5354,2.5373,2.5375,2.5384,2.539,2.5391,2.539,2.539,2.539,2.5446,2.5447,0,0,2.5342,2.5346,2.5356,2.5359,2.5358,2.5353,2.5355,2.5374,2.5381,2.539,2.5391,2.539,2.539,2.539,2.5446,2.5446,0,0,0,2.5341,2.5346,2.5348,2.5358,2.5361,2.5354,2.5355,2.538,2.538,2.5391,2.539,2.539,2.5391,2.5445,2.5446,2.5471,0,0,0,2.534,2.5345,2.5348,2.535,2.5361,2.5371,2.5361,2.5379,2.5381,2.539,2.539,2.5391,2.5445,2.5446,2.5469,2.5481,0,0,0,2.534,2.5345,2.5349,2.5351,2.5359,2.537,2.5372,2.5379,2.5381,2.539,2.5391,2.5445,2.5446,2.5468,2.5479,2.5499,0,0,0,2.5341,2.5368,2.5349,2.5379,2.5358,2.5386,2.5372,2.5391,2.5402,2.539,2.5445,2.5446,2.5467,2.5477,2.5497,2.5516,2.5524,0,0,2.5378,2.5373,2.539,2.5374,2.5407,2.5383,2.5419,2.5423,2.5419,2.5437,2.5439,2.547,2.5479,2.5498,2.557,2.5577,0,0,0,2.5403,2.5416,2.5424,2.5436,2.5442,2.5448,2.5447,2.545,2.5466,2.543,2.5482,2.5487,2.5498,2.5507,2.5513,2.5523,2.545,2.545,2.545,2.5459,2.5456,2.5485,2.5484,2.5496,2.5497,2.5506,2.5509,2.5498,2.5511,2.5516,2.5561,2.5571,2.5576,2.5586,2.5526,2.5526,2.5526,2.5526,2.5513,2.5531,2.5521,2.5546,2.5541,2.5562,2.5564,2.5557,2.5575,2.5556,2.5565,2.5544,2.5583,2.5592,2.5528,2.5528,2.5528,2.5528,2.5527,2.5549,2.5557,2.5562,2.5582,2.5597,2.5595,2.5614,2.5609,2.5603,2.5613,2.5619,2.5619,2.5618,2.5617,2.5617,2.5617,2.5617,2.5617,2.5617,2.5585,2.5589,2.5607,2.5619,2.5628,2.5639,2.5643,2.5651,2.5659,2.5653,2.5653,2.5643,2.5588,2.5575,2.562,2.5619,2.5619,2.5619,2.5619,2.564,2.5628,2.5655,2.5665,2.568,2.5697,2.5691,2.5709,2.5715,2.5725,2.5714,2.5675,2.5668,2.5664,2.5652,2.5714,2.5714,2.5714,2.5714,2.5671,2.5668,2.5697,2.5713,2.5728,2.5727,2.5759,2.5763,2.5765,2.5769,2.5759,2.5744,2.574,2.5736,2.573,2.5719,2.5797,2.5797,2.5797,2.5705,2.5704,2.5732,2.5737,2.575,2.576,2.5791,2.5809,2.5808,2.58,2.5772,2.5768,2.5744,2.5736,2.5725,2.5716,2.5696,0,0]}]]